This is the latest recevied weather packets stored in our database for station/object SA7AHC. If no packets are shown the sender has not sent any weather packets the latest 10 day(s).
| Time | Temp. | Humidity | Pressure | Rain* | Wind** | Luminosity | Snow |
|---|---|---|---|---|---|---|---|
| 1778099849 | 3.33° C | 60% | 1013.6 hPa | 0 mm | - | 0 W/m² | - |
| 1778099248 | 3.33° C | 60% | 1013.6 hPa | 0 mm | - | 0 W/m² | - |
| 1778098647 | 3.89° C | 64% | 1013.6 hPa | 0 mm | - | 0 W/m² | - |
| 1778098046 | 4.44° C | 58% | 1013.5 hPa | 0 mm | - | 0 W/m² | - |
| 1778097433 | 4.44° C | 57% | 1013.5 hPa | 0 mm | - | 0 W/m² | - |
| 1778096831 | 5° C | 57% | 1013.4 hPa | 0 mm | - | 0 W/m² | - |
| 1778096229 | 5° C | 59% | 1013.5 hPa | 0 mm | - | 0 W/m² | - |
| 1778095627 | 5° C | 59% | 1013.6 hPa | 0 mm | - | 0 W/m² | - |
| 1778095029 | 5° C | 59% | 1013.4 hPa | 0 mm | - | 0 W/m² | - |
| 1778094430 | 5° C | 60% | 1013.3 hPa | 0 mm | - | 0 W/m² | - |
| 1778093825 | 6.11° C | 57% | 1013.4 hPa | 0 mm | - | 0 W/m² | - |
| 1778093225 | 6.11° C | 53% | 1013.2 hPa | 0 mm | - | 5 W/m² | - |
| 1778092602 | 6.67° C | 52% | 1013 hPa | 0 mm | - | 7 W/m² | - |
| 1778091999 | 7.22° C | 51% | 1013.1 hPa | 0 mm | - | 11 W/m² | - |
| 1778091399 | 7.78° C | 50% | 1013 hPa | 0 mm | - | 14 W/m² | - |
| 1778090796 | 7.78° C | 49% | 1012.9 hPa | 0 mm | - | 19 W/m² | - |
| 1778090194 | 8.33° C | 47% | 1012.9 hPa | 0 mm | - | 23 W/m² | - |
| 1778089599 | 8.89° C | 45% | 1012.8 hPa | 0 mm | - | 28 W/m² | - |
| 1778089003 | 9.44° C | 44% | 1012.9 hPa | 0 mm | - | 37 W/m² | - |
| 1778088395 | 9.44° C | 42% | 1012.9 hPa | 0 mm | - | 51 W/m² | - |
| 1778087794 | 10° C | 42% | 1012.9 hPa | 0 mm | - | 74 W/m² | - |
| 1778087206 | 10.56° C | 38% | 1012.7 hPa | 0 mm | - | 91 W/m² | - |
| 1778086592 | 11.11° C | 39% | 1012.8 hPa | 0 mm | - | 213 W/m² | - |
| 1778085995 | 11.11° C | 39% | 1012.8 hPa | 0 mm | - | 225 W/m² | - |
| 1778085390 | 11.11° C | 40% | 1012.9 hPa | 0 mm | - | 290 W/m² | - |
* Rain latest hour (hover to see other rain measurements)
** Current wind speed in m/s (hover to see current wind gust speed)